Lexington Weather

Lexington, Massachusetts, USA

32°F
11/15/2019 3:27am 
  • Lexington Conditions: Clear
  • Temperature: 32.0°F / 0.0°CColder 0.2°F than last hour.
  • Dew Point: 28.9°FDecreased 0.9°Fsince last hour.
  • Relative Humidity: 88%Decreased 3.0% since last hour.
  • Wind: Calm, 10-min avg: Calm, gust: 3 mph
  • Barometer: 30.16 inFalling 0.02  inHg/hr Falling Slowly
  • Visibility: 10 miles
  • Snow Today: 0.0 in
  •   

Regional Weather Roundup
for Boston / Norton, MA

        
000
ASUS41 KBOX 150110
RWRBOX

REGIONAL WEATHER ROUNDUP
NATIONAL WEATHER SERVICE BOSTON/NORTON MA
800 PM EST THU NOV 14 2019

NOTE:  "FAIR" INDICATES FEW OR NO CLOUDS BELOW 12,000 FEET WITH NO 
SIGNIFICANT WEATHER AND/OR OBSTRUCTIONS TO VISIBILITY.

MAZALL-150200-
EASTERN MASSACHUSETTS
  
CITY           SKY/WX    TMP DP  RH WIND       PRES   REMARKS
BOSTON         MOCLDY    39  32  76 S8        30.29F                  
BEVERLY        FAIR      36  30  79 CALM      30.28F                  
LAWRENCE       CLOUDY    33  28  81 CALM      30.30F                  
BEDFORD        CLOUDY    30  24  78 CALM      30.28F                  
BLUE HILL        N/A     35  32  88 S13       30.26F WCI  26          
NORWOOD        FAIR      30  23  75 CALM      30.29F                  
MARSHFIELD     MOCLDY    39  37  93 S6        30.29F                  
PLYMOUTH       MOCLDY    34  33  96 SE3       30.29F                  
TAUNTON        FAIR      33  28  81 CALM      30.29F                  
NEW BEDFORD    MOCLDY    48  35  60 S9        30.29F                  
$$

MAZALL-150200-
CAPE COD AND THE ISLANDS
  
CITY           SKY/WX    TMP DP  RH WIND       PRES   REMARKS
FALMOUTH       MOCLDY    41  36  81 S7        30.31F                  
HYANNIS        MOCLDY    48  39  71 S7        30.30F                  
CHATHAM        FAIR      47  40  76 S9G18     30.33F                  
PROVINCETOWN   FAIR      44  40  85 S6        30.31F                  
NANTUCKET      FAIR      49  41  74 S15       30.32F                  
MARTHAS VNYRD  MOCLDY    50  36  58 SW15G22   30.31F                  
$$
 
MAZALL-150200-
CENTRAL AND WESTERN MASSACHUSETTS
  
CITY           SKY/WX    TMP DP  RH WIND       PRES   REMARKS
WORCESTER      FAIR      30  23  75 SW8       30.25F WCI  22          
FITCHBURG      MOCLDY    30  23  75 CALM      30.29S                  
ORANGE         FAIR      30  24  78 CALM      30.27F                  
SPRINGFIELD    MOCLDY    29  21  71 CALM      30.28F                  
WESTFIELD      FAIR      30  20  66 SE3       30.28F                  
NORTH ADAMS    FAIR      36  18  48 VRB7      30.24S WCI  30          
PITTSFIELD     MOCLDY    33  20  58 SW6       30.21S WCI  28          
$$
 
RIZALL-150200-
RHODE ISLAND
  
CITY           SKY/WX    TMP DP  RH WIND       PRES   REMARKS
PROVIDENCE     MOCLDY    34  29  82 CALM      30.30F                  
NEWPORT        FAIR      44  34  67 NW3       30.29F                  
BLOCK ISLAND   CLOUDY    47  39  74 W9        30.30F                  
SMITHFIELD     FAIR      31  29  92 W3        30.28F                  
WESTERLY       FAIR      46  36  68 SW5       30.30F                  
$$
 
CTZALL-150200-
CONNECTICUT
  
CITY           SKY/WX    TMP DP  RH WIND       PRES   REMARKS
BRADLEY INTL   CLOUDY    34  21  59 CALM      30.29F                  
HARTFORD       FAIR      34  23  64 CALM      30.30F                  
BRIDGEPORT     FAIR      46  28  49 SW15      30.29F                  
DANBURY        FAIR      32  25  75 CALM      30.29F                  
GROTON         FAIR      47  40  76 SW10      30.29F                  
NEW HAVEN      FAIR      49  35  58 SW15G22   30.29F                  
CHESTER        MOCLDY    41  34  75 SW5       30.28F                  
MERIDEN        FAIR      32  28  85 CALM      30.29F                  
WILLIMANTIC    FAIR      32  27  81 CALM      30.31F                  
OXFORD         MOCLDY    36  26  67 CALM      30.27F                  
$$

MEZ002-015-021-024-NHZ003-005-008-011-012-014-VTZ005-008-150200-
NORTHERN NEW ENGLAND
  
CITY           SKY/WX    TMP DP  RH WIND       PRES   REMARKS
PORTLAND ME    CLOUDY    31  20  63 CALM      30.29F                  
BANGOR ME      CLOUDY    31  26  82 CALM      30.29F                  
CONCORD NH     CLOUDY    28  19  69 CALM      30.28F                  
MANCHESTER NH  MOCLDY    30  18  60 CALM      30.28S                  
NASHUA NH      MOCLDY    28  19  69 NW6       30.30S WCI  22          
PORTSMOUTH NH  CLOUDY    30  21  68 CALM      30.27F                  
JAFFREY NH     FAIR      29  23  78 CALM      30.24F                  
KEENE NH       FAIR      27  22  81 CALM      30.27F                  
BURLINGTON VT  CLOUDY    32  18  56 S12       30.20F WCI  23          
MT. WASHINGTON FOG        9   9 100 SW46G56     N/A  VSB 1/8 WCI -18  
$$

NYZ052-076-150200-
EASTERN NEW YORK
  
CITY           SKY/WX    TMP DP  RH WIND       PRES   REMARKS
ALBANY         CLOUDY    37  19  48 S8        30.26S WCI  31          
NEW YORK CITY  MOCLDY    45  24  43 SW9       30.30F                  
$$
 
ANZALL-150200-
MARINE OBSERVATIONS
  
STATION/POSITION TIME  TEMP    WIND        PRES    VSBY  WAVE
                       AIR SEA DIR/SP/G                  HT/PER
                 (UTC) (F)     (DEG/KT/KT) (MB)    (MI)  (FT/S)
BOSTON BUOY      0050   48 52  160/ 16/ 19 1024.9          2/ 4
BUZZARDS BAY     0000   50     210/ 19/ 21 1026.4F
NANTUCKET SOUND  0040      51                N/A           2/ 3
MASS BAY-STELLWA 0004   47 51  190/ 16/ 17 1025.9F  1 7/8  3/ 4
ISLE OF SHOALS   0000   43     190/ 19/ 20 1025.7F
S OF BLOCK IS    0100      58                N/A           4/ 5
$$

......................KEY.........................
  SKY/WX - SKY CONDITION/PRESENT WEATHER
  TMP    - TEMPERATURE IN FAHRENHEIT
  DWPT   - DEWPOINT IN FAHRENHEIT
  RH     - RELATIVE HUMIDITY IN PERCENT
  WIND   - DIRECTION AND SPEED IN MPH
  PRES   - MEAN SEA LEVEL PRESSURE IN INCHES OF HG
  WCI    - WIND CHILL INDEX
  VSB    - VISIBILITY IN MILES
  HX     - HEAT INDEX
  TC     - TEMPERATURE IN CELSIUS
  VRB    - VARIABLE WIND DIRECTION
  N/A    - NOT AVAILABLE
  
      

Other recent Regional Weather Roundups

Fri Nov 15, 3:00am

Fri Nov 15, 2:10am

Fri Nov 15, 2:00am

Fri Nov 15, 1:10am

Fri Nov 15, 1:00am

Fri Nov 15, 12:10am

Fri Nov 15, 12:00am

Thu Nov 14, 11:10pm

Thu Nov 14, 11:00pm

Thu Nov 14, 10:10pm

Thu Nov 14, 10:00pm

Thu Nov 14, 9:10pm

Thu Nov 14, 9:00pm

Thu Nov 14, 8:10pm

Thu Nov 14, 8:00pm

Thu Nov 14, 7:10pm

Thu Nov 14, 7:00pm

Thu Nov 14, 6:10pm

Thu Nov 14, 6:01pm

Thu Nov 14, 5:10pm

Thu Nov 14, 5:00pm

Thu Nov 14, 4:10pm

Thu Nov 14, 4:00pm

Thu Nov 14, 3:10pm

Thu Nov 14, 3:00pm

Thu Nov 14, 2:10pm

Thu Nov 14, 2:00pm

Thu Nov 14, 1:10pm

Thu Nov 14, 1:00pm

Thu Nov 14, 12:10pm

Thu Nov 14, 12:01pm

Thu Nov 14, 11:10am

Thu Nov 14, 11:00am

Thu Nov 14, 10:10am

Thu Nov 14, 10:01am

Thu Nov 14, 9:10am

Thu Nov 14, 9:00am

Thu Nov 14, 8:10am

Thu Nov 14, 8:00am

Thu Nov 14, 7:10am

Thu Nov 14, 7:00am

Thu Nov 14, 6:10am

Thu Nov 14, 6:00am

Thu Nov 14, 5:10am

Thu Nov 14, 5:00am

Thu Nov 14, 4:10am

Thu Nov 14, 4:00am

Thu Nov 14, 3:10am

Thu Nov 14, 3:00am

Thu Nov 14, 2:10am

Thu Nov 14, 2:00am

Thu Nov 14, 1:10am

Thu Nov 14, 1:00am

Thu Nov 14, 12:10am

Thu Nov 14, 12:00am

Wed Nov 13, 11:10pm

Wed Nov 13, 11:00pm

Wed Nov 13, 10:10pm

Wed Nov 13, 10:00pm

Wed Nov 13, 9:10pm

Wed Nov 13, 9:00pm

Wed Nov 13, 8:10pm

Wed Nov 13, 8:00pm

Wed Nov 13, 7:10pm

Wed Nov 13, 7:00pm

Wed Nov 13, 6:10pm

Wed Nov 13, 6:01pm

Wed Nov 13, 5:10pm

Wed Nov 13, 5:00pm

Wed Nov 13, 4:10pm

Wed Nov 13, 4:00pm

Wed Nov 13, 3:10pm

Wed Nov 13, 3:01pm

Wed Nov 13, 2:10pm

Wed Nov 13, 2:01pm

Wed Nov 13, 1:10pm

Wed Nov 13, 1:00pm

Wed Nov 13, 12:10pm

Wed Nov 13, 12:01pm

Wed Nov 13, 11:10am

Wed Nov 13, 11:00am

Wed Nov 13, 10:10am

Wed Nov 13, 10:00am

Wed Nov 13, 9:10am

Wed Nov 13, 9:00am

Wed Nov 13, 8:10am

Wed Nov 13, 8:00am

Wed Nov 13, 7:10am

Wed Nov 13, 7:00am

Wed Nov 13, 6:10am

Wed Nov 13, 6:00am

Wed Nov 13, 5:10am

Wed Nov 13, 5:00am

Wed Nov 13, 4:10am

Wed Nov 13, 4:00am

Wed Nov 13, 3:10am

Wed Nov 13, 3:00am

Wed Nov 13, 2:10am

Wed Nov 13, 2:00am

Wed Nov 13, 1:10am

Wed Nov 13, 1:00am

Wed Nov 13, 12:10am

Wed Nov 13, 12:00am

Tue Nov 12, 11:10pm

Tue Nov 12, 11:00pm

Tue Nov 12, 10:10pm

Tue Nov 12, 10:00pm

Tue Nov 12, 9:10pm

Tue Nov 12, 9:00pm

Tue Nov 12, 8:10pm

Tue Nov 12, 8:00pm

Tue Nov 12, 7:10pm

Tue Nov 12, 7:01pm

Tue Nov 12, 6:10pm

Tue Nov 12, 6:01pm

Tue Nov 12, 5:10pm

Tue Nov 12, 5:01pm

Tue Nov 12, 4:10pm

Tue Nov 12, 4:01pm

Tue Nov 12, 3:10pm

Tue Nov 12, 3:00pm

Tue Nov 12, 2:10pm

Tue Nov 12, 2:00pm

Tue Nov 12, 1:10pm

Tue Nov 12, 1:00pm

Tue Nov 12, 12:10pm

Tue Nov 12, 12:00pm

Tue Nov 12, 11:10am

Tue Nov 12, 11:00am

Tue Nov 12, 10:10am

Tue Nov 12, 10:01am

Tue Nov 12, 9:10am

Tue Nov 12, 9:00am

Tue Nov 12, 8:10am

Tue Nov 12, 8:00am

Tue Nov 12, 7:10am

Tue Nov 12, 7:00am

Tue Nov 12, 6:10am

Tue Nov 12, 6:00am

Tue Nov 12, 5:10am

Tue Nov 12, 5:01am

Tue Nov 12, 4:10am

Tue Nov 12, 4:00am

Meta data:

ID: 1e4937bb-84f8-4fbc-8f6d-3ff43d8197a0
Link: https://api.weather.gov/products/1e4937bb-84f8-4fbc-8f6d-3ff43d8197a0